Bowling Green, KY

5:12 AM CDT on April 25, 2017 (GMT -0500)
Bowling Green-Warren County Regional

Weather History for KBWG - November, 2013

Change the Weather History Date:

Saturday, November 2, 2013

  Actual Average Record
Temperature  
Mean Temperature 50 °F 53 °F  
Max Temperature 60 °F 65 °F 85 °F (1946)
Min Temperature 39 °F 42 °F 20 °F (1954)
Degree Days  
Heating Degree Days 15 12  
Month to date heating degree days 21 24  
Since 1 July heating degree days 271 287  
Cooling Degree Days 0 0  
Month to date cooling degree days 0 0  
Year to date cooling degree days 1499 1488  
Growing Degree Days 2 (Base 50)    
Moisture  
Dew Point 41 °F    
Average Humidity 70    
Maximum Humidity 92    
Minimum Humidity 47    
Precipitation  
Precipitation 0.11 in 0.13 in 2.28 in (1945)
Month to date precipitation 0.11 0.26  
Year to date precipitation 51.94 41.13  
Snow  
Snow 0.00 in 0.00 in 8.00 in (1966)
Month to date snowfall 0.0 0.0  
Since 1 July snowfall 0.0 T  
Since 1 September snowfall 0.0 T  
Snow Depth 0.00 in    
Sea Level Pressure  
Sea Level Pressure 29.98 in    
Wind  
Wind Speed 5 mph (WNW)    
Max Wind Speed 16 mph    
Max Gust Speed 22 mph    
Visibility 10 miles    
Events Rain , Thunderstorm    
T = Trace of Precipitation, MM = Missing Value Source: NWS Daily Summary

Daily Weather History Graph

Daily Weather History Graph

Search for Another Location

Airport or City:

Trip Planner

Search our weather history database for the weather conditions in past years. The results will help you decide how hot, cold, wet, or windy it might be!

Date:

Astronomy

Nov. 02, 2013 Rise Set
Actual Time 7:10 AM CDT 5:46 PM CDT
Civil Twilight 6:44 AM CDT 6:13 PM CDT
Nautical Twilight 6:13 AM CDT 6:44 PM CDT
Astronomical Twilight 5:42 AM CDT 7:14 PM CDT
Moon 6:08 AM CDT (11/2) 5:17 PM CDT (11/2)
Length of Visible Light 11h 29m
Length of Day
10h 36m
Waning Crescent, 1% of the Moon is Illuminated
Nov 2
Waning Crescent
Nov 3
New
Nov 9
First Quarter
Nov 17
Full
Nov 25
Last Quarter

Hourly Weather History & Observations

Time (CDT) Temp. Windchill Dew Point Humidity Pressure Visibility Wind Dir Wind Speed Gust Speed Precip Events Conditions
12:53 AM 52.0 °F - 43.0 °F 71% 29.84 in 10.0 mi Calm Calm - N/A   Partly Cloudy
1:53 AM 52.0 °F - 43.0 °F 71% 29.85 in 10.0 mi NW 4.6 mph - N/A   Overcast
2:53 AM 52.0 °F - 42.1 °F 69% 29.84 in 10.0 mi Calm Calm - N/A   Overcast
3:53 AM 48.0 °F - 42.1 °F 80% 29.86 in 10.0 mi Calm Calm - N/A   Clear
4:53 AM 46.0 °F - 41.0 °F 83% 29.87 in 10.0 mi Calm Calm - N/A   Mostly Cloudy
5:53 AM 45.0 °F - 42.1 °F 90% 29.88 in 10.0 mi Calm Calm - N/A   Mostly Cloudy
6:53 AM 46.0 °F 44.8 °F 42.1 °F 86% 29.90 in 10.0 mi SW 3.5 mph - N/A   Overcast
7:53 AM 45.0 °F - 41.0 °F 86% 29.92 in 10.0 mi Calm Calm - N/A   Partly Cloudy
8:53 AM 51.1 °F - 44.1 °F 77% 29.94 in 10.0 mi West 3.5 mph - N/A   Clear
9:53 AM 55.9 °F - 43.0 °F 62% 29.95 in 10.0 mi West 5.8 mph - N/A   Clear
10:53 AM 57.0 °F - 39.0 °F 51% 29.96 in 10.0 mi Variable 4.6 mph - N/A   Clear
11:53 AM 59.0 °F - 39.0 °F 48% 29.96 in 10.0 mi Variable 5.8 mph 16.1 mph N/A   Mostly Cloudy
12:12 PM 57.2 °F - 39.2 °F 51% 29.97 in 8.0 mi WNW 8.1 mph - 0.00 in Rain , Thunderstorm Light Rain
12:28 PM 50.0 °F - 44.6 °F 82% 30.00 in 2.5 mi WNW 8.1 mph 21.9 mph 0.11 in Rain , Thunderstorm Heavy Thunderstorms and Rain
12:36 PM 50.0 °F - 46.4 °F 87% 29.99 in 10.0 mi WNW 10.4 mph 16.1 mph 0.11 in Thunderstorm Thunderstorm
12:49 PM 51.8 °F - 44.6 °F 76% 29.98 in 10.0 mi WNW 6.9 mph 18.4 mph 0.11 in Rain Light Rain
12:53 PM 52.0 °F - 44.1 °F 74% 29.98 in 10.0 mi West 11.5 mph 16.1 mph 0.11 in Rain Light Rain
1:53 PM 55.9 °F - 44.1 °F 64% 29.97 in 10.0 mi West 8.1 mph - 0.00 in   Clear
2:53 PM 57.0 °F - 42.1 °F 57% 29.97 in 10.0 mi West 11.5 mph - N/A   Scattered Clouds
3:53 PM 55.9 °F - 39.9 °F 55% 29.99 in 10.0 mi WNW 10.4 mph 20.7 mph 0.00 in   Overcast
4:53 PM 55.0 °F - 39.9 °F 57% 30.01 in 10.0 mi WNW 11.5 mph - N/A   Mostly Cloudy
5:53 PM 53.1 °F - 39.9 °F 61% 30.04 in 10.0 mi WNW 8.1 mph - N/A   Mostly Cloudy
6:53 PM 53.1 °F - 42.1 °F 66% 30.07 in 10.0 mi NW 8.1 mph - N/A   Overcast
7:53 PM 52.0 °F - 41.0 °F 66% 30.11 in 10.0 mi NW 5.8 mph - N/A   Mostly Cloudy
8:53 PM 48.9 °F - 39.9 °F 71% 30.14 in 10.0 mi WNW 6.9 mph - N/A   Scattered Clouds
9:53 PM 48.0 °F - 39.9 °F 74% 30.16 in 10.0 mi NNW 6.9 mph - N/A   Scattered Clouds
10:53 PM 46.0 °F - 36.0 °F 68% 30.18 in 10.0 mi Calm Calm - N/A   Clear
11:53 PM 44.1 °F - 36.0 °F 73% 30.18 in 10.0 mi Calm Calm - N/A   Clear